Content
SEND FEEDBACK

Daily
Averages
Monthly
Summary
Mauritania

NOUADHIBOU, MAURITANIA


Home > Africa > Mauritania
Elevation: 10 feet     Latitude: 20 56N     Longitude: 017 02W

WEATHER
 
SELECT A DAY
Number of Records: 117,602;   Date Range: 7/1/96 - 7/23/14
 
SHARE

PRINT THIS DATA

[ ← Previous Day ]
WEATHER ALMANAC - JULY 3, 2013
[ Next Day → ]
[ °C ]   °F
Weather ElementAverageHighLow
Temperature69.9 °F80 °F (3:00 pm) (10:00 am)
Dewpoint62.5 °F67 °F (12:00 pm) (7:00 pm)
Humidity76.4 %94 % (7:00 am)53 % (3:00 pm)
Barometer29.02 in (7:00 pm) (7:00 pm)
Wind Speed7 mph13.8 mph (10:00 pm)
Weather ElementAverage
Visibility4.1 mi
Wind DirectionSW (225.7 °)

Weather ElementTotal
Precipitation---
Heating Degree Days25 (Base 65)
Averaged from 30 records on July 3, 2013
WEATHER CONDITIONS BREAKOUT
WIND DIRECTION BREAKOUT
WEATHER BY HOUR - JULY 3, 2013
[ °C ]   °F
Local TimeTemperatureDewpointHumidityBarometerVisibilityWind DirectionWind SpeedGust SpeedPrecipitationEventsConditions
12:00 AM71.6 °F64.4 °F78 %29.92 in4.3 miCalm
1:00 AM71.6 °F62.6 °F73 %29.92 in4.3 miCalm
2:00 AM71.6 °F64.4 °F78 %29.89 in4.3 miVariable3.5 mph
3:00 AM69.0 °F65.0 °F84 %29.91 in4.0 miSW (220°)5.8 mph
3:00 AM68.0 °F64.4 °F88 %29.89 in4.3 miSouth (190°)8.1 mph
4:00 AM68.0 °F64.4 °F88 %29.89 in4.3 miSouth (190°)8.1 mph
5:00 AM66.2 °F62.6 °F88 %29.89 in4.3 miWSW (250°)4.6 mph
6:00 AM66.2 °F62.6 °F88 %29.89 in4.3 miVariable3.5 mph
6:00 AM67.0 °F65.0 °F92 %29.92 in4.0 miWSW (240°)3.5 mphMostly Cloudy
7:00 AM66.2 °F64.4 °F94 %4.3 miSW (230°)4.6 mph
8:00 AM68.0 °F64.4 °F88 %29.92 in4.3 miWest (280°)8.1 mph
9:00 AM70.0 °F66.0 °F85 %29.96 in4.0 miWNW (290°)5.8 mphMostly Cloudy
9:00 AM69.8 °F64.4 °F83 %29.95 in3.7 miWNW (300°)5.8 mphMostly Cloudy
10:00 AM0.0 °F0.0 °F3.7 miVariable3.5 mphMostly Cloudy
11:00 AM75.2 °F64.4 °F69 %29.95 in3.7 miWNW (300°)6.9 mphMostly Cloudy
12:00 PM75.2 °F66.2 °F73 %29.95 in3.7 miWNW (300°)9.2 mphMostly Cloudy
12:00 PM78.0 °F67.0 °F60 %29.98 in4.0 miWNW (300°)8.1 mphPartly Cloudy
1:00 PM78.8 °F66.2 °F65 %29.95 in3.7 miWNW (300°)5.8 mphMostly Cloudy
2:00 PM78.8 °F64.4 °F61 %29.95 in3.7 miWNW (290°)9.2 mph
3:00 PM80.0 °F66.0 °F53 %29.94 in4.0 miWNW (290°)9.2 mphMostly Cloudy
3:00 PM78.8 °F64.4 °F61 %29.92 in4.3 miWest (280°)9.2 mph
4:00 PM77.0 °F64.4 °F65 %29.92 in4.3 miWest (280°)8.1 mph
5:00 PM75.2 °F64.4 °F69 %29.89 in4.3 miWest (280°)8.1 mph
6:00 PM75.2 °F64.4 °F69 %29.89 in4.3 miWNW (290°)6.9 mph
6:00 PM77.0 °F66.0 °F60 %29.92 in4.0 miWest (280°)6.9 mphPartly Cloudy
7:00 PM73.4 °F64.4 °F73 %29.89 in4.3 miWest (260°)8.1 mph
8:00 PM71.6 °F64.4 °F78 %29.89 in4.3 miWest (260°)11.5 mph
9:00 PM69.8 °F64.4 °F83 %29.92 in4.3 miWest (270°)12.7 mph
10:00 PM69.8 °F64.4 °F83 %29.92 in4.3 miWNW (300°)13.8 mph
11:00 PM69.8 °F66.2 °F88 %29.95 in4.3 miWNW (300°)11.5 mph
Hourly data recorded from GQPP, located miles away from Nouadhibou, Mauritania







STORIES FROM OUR PARTNERS